Regional Weather Roundup
Issued by NWS Portland, ME

Current Version | Previous Version | Text Only | Print | Product List | Glossary On
Versions: 1 2 3 4 5 6 7 8 9 10 11 12 13 14 15 16 17 18 19 20 21 22 23 24 25 26 27 28 29 30 31 32 33 34 35 36 37 38 39 40 41 42 43 44 45 46 47 48 49 50
000
ASUS41 KGYX 232010
RWRGYX
WEATHER ROUNDUP FOR MAINE AND NEW HAMPSHIRE
NATIONAL WEATHER SERVICE GRAY ME
400 PM EDT WED AUG 23 2017

MEZ002-005-006-010-012-015-018-020-021-024-026-027-029-232100-
MAINE

CITY           SKY/WX    TMP DP  RH WIND       PRES   REMARKS
PORTLAND       MOSUNNY   78  52  40 W17       29.73S
SANFORD        MOSUNNY   78  53  41 W15       29.76S
BAR HARBOR     SUNNY     79  62  56 W7        29.67S
WISCASSET      MOSUNNY   81  52  36 W9G18     29.71R
ROCKLAND       MOSUNNY   79  61  53 SW9       29.69R
FRYEBURG       MOSUNNY   77  51  40 W12G18    29.75R
LEWISTONAUBURN SUNNY     78  51  38 W10G17    29.72S
AUGUSTA        SUNNY     78  49  35 W13G20    29.71S
WATERVILLE     SUNNY     77  51  40 W10G17    29.69S
BANGOR         MOSUNNY   81  51  35 W9        29.68R
GREENVILLE       N/A     70  51  51 NW10G22   29.70R
MILLINOCKET    MOSUNNY   78  51  38 VRB7      29.67S
HOULTON        MOSUNNY   77  53  43 W15G22    29.62R
PRESQUE ISLE   MOSUNNY   76  50  40 SW16G24   29.62S
FRENCHVILLE    PTSUNNY   70  48  45 W12G26    29.61S
CARIBOU        SUNNY     76  50  40 W17G24    29.60S
$$

NHZ002-005-008-009-011-012-014-232100-
NEW HAMPSHIRE

CITY           SKY/WX    TMP DP  RH WIND       PRES   REMARKS
PORTSMOUTH     PTSUNNY   79  54  41 NW13      29.74S
ROCHESTER      MOSUNNY   78  52  40 VRB6G18   29.75F
NASHUA         MOSUNNY   78  54  43 W12G21    29.78S
MANCHESTER     PTSUNNY   78  50  37 NW12      29.76S
CONCORD        MOSUNNY   79  53  40 W9G17     29.77S
LACONIA        MOSUNNY   76  52  43 W12       29.78S
PLYMOUTH       PTSUNNY   76  51  40 W7        29.77F
BERLIN         PTSUNNY   71  48  43 W8        29.77S
WHITEFIELD     CLOUDY    73  49  42 W12G21    29.78S
JAFFREY        PTSUNNY   74  53  48 W8        29.82F
KEENE            N/A    N/A N/A N/A MISG        N/A
LEBANON        PTSUNNY   76  50  40 SW7       29.78F
MT WASHINGTON  PTSUNNY   43  41  93 W51G58      N/A
$$

VTZ005-007-008-232100-
VERMONT

CITY           SKY/WX    TMP DP  RH WIND       PRES   REMARKS
ST JOHNSBURY     N/A     73  50  44 MISG      29.76S
MONTPELIER     MOSUNNY   71  51  49 W10       29.83S
BURLINGTON     MOSUNNY   77  49  37 W15       29.77S
$$

MAZ007-012-024-CTZ003-RIZ002-NYZ038-NYZ072-232100-
SOUTHERN NEW ENGLAND AND NY

CITY           SKY/WX    TMP DP  RH WIND       PRES   REMARKS
BOSTON         PTSUNNY   81  49  32 W14G22    29.76R
WORCESTER      MOSUNNY   74  50  42 NW13      29.82S
NANTUCKET      CLOUDY    76  72  87 W10       29.78S
PROVIDENCE     PTSUNNY   84  53  34 SW14      29.78S
HARTFORD       PTSUNNY   80  53  39 NW10      29.81F
ALBANY         MOSUNNY   77  49  37 W14       29.82F
NEW YORK CITY  PTSUNNY   81  56  42 NW13      29.82S
$$

ANZ081-ANZ082-ANZ150-NHZ014-MEZ023>029-232100-
COASTAL MARINE OBSERVATIONS

STATION/POSITION TIME  TEMP    WIND        PRES    WAVE
                       AIR SEA DIR/SP/G            HT/PER
                 (UTC) (F)     (DEG/KT/KT) (MB)    (FT/S)
MOUNT DESERT ROC 2000   60     210/ 17/ 17 1005.8F
MATINICUS ROCK   1900   63     230/ 18/ 18 1005.5R
ISLE OF SHOALS   1900   76     270/ 15/ 16 1006.9S
JEFFREYS LEDGE   1906      65                N/A     3/ 6
CASHES LEDGE BUO 1850   73 68              1006.3    4/ 7
GEORGES BANK BUO 1850   72 66              1009.9    6/ 6
$$

.............KEY..............
   WCI - WIND CHILL
   TC  - TEMPERATURE IN CELSIUS
   VSB - VISIBILITY IN MILES
   HX  - HEAT INDEX
   FAIR- INDICATES FEW OR NO CLOUDS BELOW 12,000 FT, WITH NO
         SIGNIFICANT WEATHER AND/OR OBSTRUCTIONS TO VISIBILITY.






USA.gov is the U.S. government's official web portal to all federal, state and local government web resources and services.